COSMOS 1275 DEB, 12782

Orbit data source: Space-Track

COSMOS 1275 DEB, 12782 is space debris in LEO originally from a launch on Thu, 04 Jun 1981 UTC launched from the Plesetsk Missile And Space Complex (PKMTR). Debris objects in space refer to the collection of defunct objects orbiting the Earth. Examples of debris include non-operational satellites, rocket bodies, and fragments generated from explosions, collisions, or faulty payload assembly.

Loading next visibility...
Identifier
12782, 1981-053DY
Orbit
LEO
Country
Flag of CISCIS
Related business
Manufacturer
Unknown
Mission
Spacecraft
Bus & Motor
Unknown
Mass
Unknown
Launch date (UTC)
1981-06-04 (44 years ago)
Launch vehicle
Unknown
Launch site
Plesetsk Missile And Space Complex (PKMTR)
Object type
Payload
Rocket body
Debris
Shape & HBR
Unknown shape, 0.1 m
Radar Cross Section
Small (<0.1 m²)

Expand to show TLE details & history
Last TLE update: 19 hours ago

TLE from 19 hours ago
0 COSMOS 1275 DEB
1 12782U 81053DY  25308.85667060  .00000523  00000-0  52852-3 0  9998
2 12782  82.9964 271.9946 0076363 131.3099 261.5475 13.74040092202496
Epoch: 2025-11-04T20:33Z
TLE epoch observation values (Epoch: 2025-11-04T20:33:36.339Z)
Latitude
31.78285°
Longitude
-76.40169°
Altitude
997.843 km
Speed
7.351 km/s
True Right ascension
18h 25m 20s
True Declination
31° 38' 03"
Sunlit
Object was in daylight at epoch
Visualization orbit readout
Latitude
Unknown
Longitude
Unknown
Altitude
Unknown
Speed
Unknown
Apparent Right ascension
Unknown
Apparent Declination
Unknown
Sunlit
N/A
Visualization observer readout
Local Sidereal Time
11:41:20
Azimuth
Unknown
Elevation
Unknown
Doppler factor
Unknown
Orbital elements
Apogee altitude
1,038.456 km
Perigee altitude
926.044 km
Semi-major axis
7,360.387 km
Eccentricity
0.00764
Inclination
82.9964°
RAAN
271.9946°
Arg. of periapsis
131.3099°
True anomaly
260.68319°
Mean anomaly
261.5475°
Eccentric anomaly
261.11522°
Mean motion
3.4371 °/min
Orbital period
104.74 mins
BSTAR
0.00052852
Loading maneuver chart data...
Computing Atmospheric mass density...

Documentation

Showing up to 5 results
|